Location: Ford County Road and Bridge Department
(37.7686°N, 99.9762°W)
Time: 17:35:08
(UTC+00:00)

ADEOS Rocket - Pass Details

Date: 18 January 2020
Orbit: 859 x 1306 km, 98.7° (Epoch: 23 February)

Event Time Altitude Azimuth Distance (km) Brightness Sun altitude
Exits shadow 01:21:37 - 20° (NNE) 3,288 5.5 -18.5°
Reaches altitude 10° 01:22:49 10° 22° (NNE) 2,858 5.1 -18.8°
Maximum altitude 01:29:13 58° 101° (E) 1,302 3.3 -20.0°
Drops below altitude 10° 01:36:17 10° 179° (S) 3,146 5.7 -21.4°
Sets 01:39:05 0° 183° (S) 4,158 6.4 -21.9°
